Location: Newark
(39.0622°N, 106.5590°E)
Time: 00:57:54
(UTC+00:00)

Vanguard 2 Rocket - Pass Details

Date: 30 January 2020
Orbit: 554 x 3327 km, 32.9° (Epoch: 20 February)

Event Time Altitude Azimuth Distance (km) Brightness Sun altitude
Rises 00:47:12 0° 266° (W) 3,110 9.1 6.9°
Reaches altitude 10° 00:49:27 10° 255° (WSW) 2,389 8.7 7.3°
Maximum altitude 00:54:20 31° 193° (SSW) 1,789 8.7 8.1°
Drops below altitude 10° 01:01:54 10° 136° (SE) 3,766 12.1 9.3°
Sets 01:06:27 0° 128° (SE) 5,266 13.1 10.1°
